| time (UTC) | temp F | wind direction | speed MPH | gust MPH | rain 1hr in | rain 24hr in | rain mn in | humidity % | barometer mb |
| 20260507215013 | 48 | 53 | 0.0 | 0.0 | 0.00 | 0.06 | 0.05 | 89 | 1013.9 |
| 20260507214811 | 48 | 53 | 0.0 | 0.0 | 0.00 | 0.06 | 0.05 | 89 | 1013.8 |
| 20260507214606 | 48 | 53 | 0.0 | 0.0 | 0.00 | 0.06 | 0.05 | 89 | 1013.9 |
| 20260507214404 | 48 | 53 | 0.0 | 0.0 | 0.00 | 0.06 | 0.05 | 89 | 1013.8 |
| 20260507214158 | 48 | 53 | 0.0 | 0.0 | 0.00 | 0.06 | 0.05 | 89 | 1013.8 |
| 20260507213640 | 48 | 51 | 0.0 | 1.0 | 0.00 | 0.06 | 0.05 | 89 | 1013.9 |
| 20260507213434 | 48 | 51 | 0.0 | 1.0 | 0.00 | 0.06 | 0.05 | 89 | 1013.9 |
| 20260507213227 | 48 | 51 | 0.0 | 1.0 | 0.00 | 0.06 | 0.05 | 89 | 1013.9 |
| 20260507213026 | 48 | 51 | 0.0 | 1.0 | 0.00 | 0.06 | 0.05 | 89 | 1014.0 |
| 20260507212500 | 48 | 47 | 0.0 | 0.0 | 0.00 | 0.06 | 0.05 | 89 | 1014.0 |
| 20260507211941 | 48 | 46 | 0.0 | 1.0 | 0.00 | 0.06 | 0.05 | 88 | 1013.9 |
| 20260507211408 | 48 | 46 | 0.0 | 0.0 | 0.00 | 0.06 | 0.05 | 88 | 1014.0 |
| 20260507211201 | 48 | 46 | 0.0 | 0.0 | 0.00 | 0.06 | 0.05 | 88 | 1014.0 |
| 20260507210952 | 48 | 46 | 0.0 | 0.0 | 0.00 | 0.06 | 0.05 | 88 | 1014.0 |
| 20260507210745 | 48 | 46 | 0.0 | 0.0 | 0.00 | 0.06 | 0.05 | 88 | 1013.9 |
| 20260507210544 | 48 | 46 | 0.0 | 0.0 | 0.00 | 0.06 | 0.05 | 88 | 1014.0 |
| 20260507210345 | 48 | 46 | 0.0 | 0.0 | 0.00 | 0.06 | 0.05 | 88 | 1014.1 |
| 20260507205813 | 48 | 46 | 0.0 | 3.0 | 0.00 | 0.06 | 0.05 | 88 | 1014.1 |
| 20260507205254 | 48 | 47 | 0.0 | 3.0 | 0.00 | 0.06 | 0.05 | 88 | 1014.1 |
| 20260507205050 | 48 | 42 | 0.0 | 3.0 | 0.00 | 0.06 | 0.05 | 88 | 1014.0 |
| 20260507204531 | 48 | 57 | 0.0 | 0.0 | 0.00 | 0.06 | 0.05 | 88 | 1014.0 |
| 20260507204321 | 48 | 58 | 0.0 | 0.0 | 0.00 | 0.06 | 0.05 | 88 | 1014.0 |
| 20260507204113 | 48 | 58 | 0.0 | 0.0 | 0.00 | 0.06 | 0.05 | 88 | 1013.8 |
| 20260507203909 | 48 | 58 | 0.0 | 0.0 | 0.00 | 0.06 | 0.05 | 88 | 1013.9 |
| 20260507203352 | 48 | 57 | 0.0 | 0.0 | 0.00 | 0.06 | 0.05 | 88 | 1013.8 |
| 20260507203151 | 48 | 57 | 0.0 | 0.0 | 0.00 | 0.06 | 0.05 | 88 | 1013.8 |
| 20260507202625 | 48 | 57 | 0.0 | 0.0 | 0.00 | 0.06 | 0.05 | 87 | 1013.8 |
| 20260507202055 | 49 | 56 | 0.0 | 0.0 | 0.00 | 0.06 | 0.05 | 87 | 1013.8 |
| 20260507201849 | 49 | 56 | 0.0 | 0.0 | 0.00 | 0.06 | 0.05 | 86 | 1013.8 |
| 20260507201648 | 49 | 56 | 0.0 | 0.0 | 0.00 | 0.06 | 0.05 | 86 | 1013.8 |
| 20260507201445 | 49 | 56 | 0.0 | 0.0 | 0.00 | 0.06 | 0.05 | 86 | 1013.7 |
| 20260507201242 | 49 | 56 | 0.0 | 0.0 | 0.00 | 0.06 | 0.05 | 86 | 1013.7 |
| 20260507201041 | 49 | 56 | 0.0 | 0.0 | 0.00 | 0.06 | 0.05 | 85 | 1013.8 |
| 20260507200835 | 49 | 56 | 0.0 | 0.0 | 0.00 | 0.06 | 0.05 | 85 | 1013.7 |
| 20260507200625 | 49 | 56 | 0.0 | 0.0 | 0.00 | 0.06 | 0.05 | 85 | 1013.6 |
| 20260507200423 | 50 | 56 | 0.0 | 0.0 | 0.00 | 0.06 | 0.05 | 85 | 1013.6 |
| 20260507200213 | 50 | 56 | 0.0 | 2.0 | 0.00 | 0.06 | 0.05 | 85 | 1013.6 |
| 20260507200007 | 50 | 56 | 0.0 | 2.0 | 0.00 | 0.06 | 0.05 | 85 | 1013.6 |
| 20260507195446 | 50 | 49 | 0.0 | 0.0 | 0.00 | 0.06 | 0.05 | 84 | 1013.6 |
| 20260507195240 | 50 | 49 | 0.0 | 2.0 | 0.00 | 0.06 | 0.05 | 84 | 1013.6 |
| 20260507195031 | 50 | 49 | 0.0 | 2.0 | 0.00 | 0.06 | 0.05 | 84 | 1013.6 |
| 20260507194831 | 50 | 47 | 0.0 | 2.0 | 0.00 | 0.06 | 0.05 | 84 | 1013.6 |
| 20260507194629 | 50 | 56 | 0.0 | 2.0 | 0.00 | 0.06 | 0.05 | 84 | 1013.6 |
| 20260507194429 | 50 | 44 | 0.0 | 2.0 | 0.00 | 0.06 | 0.05 | 84 | 1013.6 |
| 20260507194229 | 50 | 44 | 0.0 | 2.0 | 0.00 | 0.06 | 0.05 | 84 | 1013.5 |
| 20260507194022 | 50 | 49 | 0.0 | 2.0 | 0.00 | 0.06 | 0.05 | 84 | 1013.4 |
| 20260507193823 | 50 | 49 | 0.0 | 2.0 | 0.00 | 0.06 | 0.05 | 84 | 1013.4 |
| 20260507193623 | 50 | 51 | 0.0 | 2.0 | 0.00 | 0.06 | 0.05 | 84 | 1013.3 |
| 20260507193421 | 50 | 53 | 0.0 | 0.0 | 0.00 | 0.06 | 0.05 | 84 | 1013.4 |
| 20260507193218 | 50 | 53 | 0.0 | 3.0 | 0.00 | 0.06 | 0.05 | 84 | 1013.3 |
| 20260507193011 | 50 | 54 | 0.0 | 3.0 | 0.00 | 0.06 | 0.05 | 84 | 1013.4 |
| 20260507192805 | 50 | 58 | 0.0 | 3.0 | 0.00 | 0.06 | 0.05 | 83 | 1013.3 |
| 20260507192602 | 50 | 58 | 0.0 | 3.0 | 0.00 | 0.06 | 0.05 | 83 | 1013.3 |
| 20260507192355 | 50 | 49 | 0.0 | 3.0 | 0.00 | 0.06 | 0.05 | 83 | 1013.3 |
| 20260507192151 | 50 | 49 | 1.0 | 6.0 | 0.00 | 0.06 | 0.05 | 83 | 1013.3 |
| 20260507191949 | 50 | 57 | 1.0 | 6.0 | 0.00 | 0.06 | 0.05 | 83 | 1013.3 |
| 20260507191738 | 50 | 57 | 2.0 | 6.0 | 0.00 | 0.06 | 0.05 | 83 | 1013.3 |
| 20260507191531 | 51 | 65 | 3.0 | 6.0 | 0.00 | 0.06 | 0.05 | 83 | 1013.2 |
| 20260507191332 | 51 | 40 | 3.0 | 6.0 | 0.00 | 0.06 | 0.05 | 82 | 1013.2 |
| 20260507191124 | 51 | 50 | 3.0 | 6.0 | 0.00 | 0.06 | 0.05 | 82 | 1013.1 |
| 20260507190919 | 51 | 44 | 3.0 | 6.0 | 0.00 | 0.06 | 0.05 | 83 | 1013.2 |
| 20260507190712 | 51 | 46 | 3.0 | 6.0 | 0.00 | 0.06 | 0.05 | 83 | 1013.2 |
| 20260507190507 | 51 | 39 | 2.0 | 6.0 | 0.00 | 0.06 | 0.05 | 83 | 1013.2 |
| 20260507190304 | 51 | 45 | 2.0 | 5.0 | 0.00 | 0.06 | 0.05 | 83 | 1013.1 |
| 20260507185744 | 51 | 40 | 2.0 | 5.0 | 0.00 | 0.06 | 0.05 | 83 | 1013.2 |
| 20260507185545 | 51 | 44 | 2.0 | 5.0 | 0.00 | 0.06 | 0.05 | 82 | 1013.1 |
| 20260507185027 | 51 | 52 | 2.0 | 5.0 | 0.00 | 0.06 | 0.05 | 82 | 1013.0 |
| 20260507184817 | 51 | 53 | 2.0 | 5.0 | 0.00 | 0.06 | 0.05 | 82 | 1013.1 |
| 20260507184616 | 51 | 49 | 2.0 | 5.0 | 0.00 | 0.06 | 0.05 | 82 | 1013.1 |
| 20260507184407 | 51 | 43 | 1.0 | 5.0 | 0.00 | 0.06 | 0.05 | 82 | 1013.2 |
| 20260507184202 | 51 | 36 | 1.0 | 4.0 | 0.00 | 0.06 | 0.05 | 81 | 1013.1 |
| 20260507183958 | 51 | 51 | 1.0 | 4.0 | 0.00 | 0.06 | 0.05 | 81 | 1013.1 |
| 20260507183747 | 51 | 39 | 1.0 | 4.0 | 0.00 | 0.06 | 0.05 | 81 | 1013.1 |
| 20260507183541 | 51 | 46 | 1.0 | 4.0 | 0.00 | 0.06 | 0.05 | 81 | 1013.1 |
| 20260507182704 | 51 | 79 | 2.0 | 4.0 | 0.00 | 0.06 | 0.05 | 80 | 1013.1 |
| 20260507182459 | 51 | 42 | 2.0 | 4.0 | 0.00 | 0.06 | 0.05 | 80 | 1013.1 |
| 20260507181935 | 51 | 42 | 1.0 | 4.0 | 0.00 | 0.06 | 0.05 | 80 | 1013.1 |
| 20260507181730 | 51 | 47 | 1.0 | 3.0 | 0.00 | 0.06 | 0.05 | 80 | 1013.0 |
| 20260507181529 | 51 | 50 | 1.0 | 3.0 | 0.00 | 0.06 | 0.05 | 80 | 1013.0 |
| 20260507181330 | 51 | 57 | 1.0 | 4.0 | 0.00 | 0.06 | 0.05 | 80 | 1013.2 |
| 20260507181129 | 52 | 44 | 1.0 | 4.0 | 0.00 | 0.06 | 0.05 | 80 | 1013.1 |
| 20260507180925 | 52 | 46 | 1.0 | 4.0 | 0.00 | 0.06 | 0.05 | 80 | 1013.2 |
| 20260507180716 | 52 | 41 | 1.0 | 4.0 | 0.00 | 0.06 | 0.05 | 80 | 1013.2 |
| 20260507180513 | 52 | 45 | 1.0 | 4.0 | 0.00 | 0.06 | 0.05 | 80 | 1013.2 |
| 20260507180303 | 52 | 44 | 2.0 | 5.0 | 0.00 | 0.06 | 0.05 | 80 | 1013.1 |
| 20260507180059 | 52 | 50 | 2.0 | 5.0 | 0.00 | 0.06 | 0.05 | 79 | 1013.1 |
| 20260507175855 | 52 | 56 | 2.0 | 5.0 | 0.00 | 0.06 | 0.05 | 79 | 1013.1 |
| 20260507175651 | 52 | 42 | 2.0 | 5.0 | 0.00 | 0.06 | 0.05 | 79 | 1013.1 |
| 20260507175443 | 52 | 38 | 2.0 | 5.0 | 0.00 | 0.06 | 0.05 | 79 | 1013.0 |
| 20260507175236 | 52 | 50 | 2.0 | 5.0 | 0.00 | 0.06 | 0.05 | 78 | 1013.0 |
| 20260507175034 | 52 | 58 | 1.0 | 5.0 | 0.00 | 0.06 | 0.05 | 78 | 1013.1 |
| 20260507174833 | 52 | 49 | 1.0 | 5.0 | 0.00 | 0.06 | 0.05 | 78 | 1013.0 |
| 20260507174634 | 52 | 53 | 1.0 | 5.0 | 0.00 | 0.06 | 0.05 | 78 | 1013.0 |
| 20260507174424 | 52 | 41 | 0.0 | 4.0 | 0.00 | 0.06 | 0.05 | 78 | 1013.1 |
| 20260507174222 | 52 | 61 | 0.0 | 4.0 | 0.00 | 0.06 | 0.05 | 77 | 1013.0 |
| 20260507173658 | 52 | 207 | 0.0 | 3.0 | 0.00 | 0.06 | 0.05 | 78 | 1013.1 |
| 20260507173451 | 53 | 83 | 0.0 | 2.0 | 0.00 | 0.06 | 0.05 | 78 | 1013.0 |
| 20260507173246 | 53 | 128 | 0.0 | 2.0 | 0.00 | 0.06 | 0.05 | 78 | 1013.0 |
| 20260507173036 | 53 | 66 | 0.0 | 2.0 | 0.00 | 0.06 | 0.05 | 78 | 1013.0 |
| 20260507172515 | 53 | 59 | 0.0 | 2.0 | 0.00 | 0.06 | 0.05 | 78 | 1013.0 |
| 20260507172308 | 53 | 152 | 0.0 | 2.0 | 0.00 | 0.06 | 0.05 | 78 | 1013.0 |
| 20260507171106 | 54 | 245 | 0.0 | 2.0 | 0.00 | 0.06 | 0.05 | 76 | 1012.9 |
| 20260507170905 | 54 | 146 | 0.0 | 0.0 | 0.00 | 0.06 | 0.05 | 76 | 1012.9 |
| 20260507170701 | 54 | 226 | 0.0 | 2.0 | 0.00 | 0.06 | 0.05 | 76 | 1012.9 |
| 20260507170454 | 54 | 220 | 0.0 | 2.0 | 0.00 | 0.06 | 0.05 | 76 | 1012.8 |
| 20260507170247 | 54 | 151 | 0.0 | 2.0 | 0.00 | 0.06 | 0.05 | 76 | 1012.9 |
| 20260507170040 | 54 | 283 | 0.0 | 2.0 | 0.00 | 0.06 | 0.05 | 76 | 1012.9 |
| 20260507165838 | 54 | 236 | 0.0 | 4.0 | 0.00 | 0.06 | 0.05 | 76 | 1013.0 |
| 20260507165633 | 55 | 250 | 0.0 | 4.0 | 0.00 | 0.06 | 0.05 | 75 | 1012.9 |
| 20260507165432 | 55 | 136 | 0.0 | 4.0 | 0.00 | 0.06 | 0.05 | 75 | 1012.8 |
| 20260507165231 | 55 | 117 | 0.0 | 4.0 | 0.00 | 0.06 | 0.05 | 75 | 1012.9 |
| 20260507165028 | 55 | 180 | 0.0 | 4.0 | 0.00 | 0.06 | 0.05 | 75 | 1012.8 |
| 20260507164820 | 55 | 221 | 0.0 | 4.0 | 0.00 | 0.06 | 0.05 | 73 | 1012.8 |
| 20260507164615 | 56 | 198 | 0.0 | 4.0 | 0.00 | 0.06 | 0.05 | 73 | 1012.8 |
| 20260507164409 | 56 | 169 | 0.0 | 4.0 | 0.00 | 0.06 | 0.05 | 73 | 1012.9 |
| 20260507164159 | 56 | 146 | 0.0 | 4.0 | 0.00 | 0.06 | 0.05 | 72 | 1012.9 |
| 20260507163957 | 56 | 75 | 0.0 | 4.0 | 0.00 | 0.06 | 0.05 | 72 | 1012.9 |
| 20260507163436 | 57 | 60 | 1.0 | 5.0 | 0.00 | 0.06 | 0.05 | 73 | 1012.9 |
| 20260507163236 | 56 | 67 | 1.0 | 5.0 | 0.00 | 0.06 | 0.05 | 72 | 1013.0 |
| 20260507163036 | 57 | 289 | 1.0 | 5.0 | 0.00 | 0.06 | 0.05 | 71 | 1013.0 |
| 20260507162832 | 57 | 262 | 1.0 | 5.0 | 0.00 | 0.06 | 0.05 | 71 | 1013.0 |
| 20260507162632 | 57 | 245 | 1.0 | 6.0 | 0.00 | 0.06 | 0.05 | 71 | 1012.9 |
| 20260507162425 | 57 | 266 | 1.0 | 6.0 | 0.00 | 0.06 | 0.05 | 72 | 1012.8 |
| 20260507162215 | 57 | 255 | 0.0 | 6.0 | 0.00 | 0.06 | 0.05 | 72 | 1012.8 |
| 20260507162014 | 57 | 60 | 1.0 | 6.0 | 0.00 | 0.06 | 0.05 | 71 | 1012.8 |
| 20260507161806 | 57 | 48 | 1.0 | 6.0 | 0.00 | 0.06 | 0.05 | 70 | 1012.8 |
| 20260507161605 | 58 | 238 | 1.0 | 6.0 | 0.00 | 0.06 | 0.05 | 69 | 1012.8 |
| 20260507161358 | 58 | 284 | 1.0 | 6.0 | 0.00 | 0.06 | 0.05 | 72 | 1012.8 |
| 20260507161151 | 57 | 101 | 2.0 | 6.0 | 0.00 | 0.06 | 0.05 | 71 | 1012.8 |
| 20260507160630 | 57 | 134 | 2.0 | 5.0 | 0.00 | 0.06 | 0.05 | 74 | 1012.8 |
| 20260507160425 | 57 | 42 | 1.0 | 7.0 | 0.00 | 0.06 | 0.05 | 71 | 1012.8 |
| 20260507155854 | 58 | 211 | 1.0 | 7.0 | 0.00 | 0.06 | 0.05 | 69 | 1012.8 |
| 20260507155653 | 58 | 149 | 1.0 | 7.0 | 0.00 | 0.06 | 0.05 | 71 | 1012.8 |
| 20260507155447 | 58 | 75 | 2.0 | 7.0 | 0.00 | 0.06 | 0.05 | 72 | 1012.8 |
| 20260507155240 | 57 | 319 | 2.0 | 7.0 | 0.00 | 0.06 | 0.05 | 74 | 1012.8 |
| 20260507155035 | 57 | 56 | 2.0 | 7.0 | 0.00 | 0.06 | 0.05 | 72 | 1012.9 |
| 20260507154830 | 57 | 56 | 1.0 | 7.0 | 0.00 | 0.06 | 0.05 | 70 | 1012.8 |
| 20260507154627 | 57 | 51 | 1.0 | 7.0 | 0.00 | 0.06 | 0.05 | 71 | 1012.9 |
| 20260507154418 | 57 | 259 | 1.0 | 6.0 | 0.00 | 0.06 | 0.05 | 70 | 1012.9 |
| 20260507154209 | 57 | 300 | 1.0 | 6.0 | 0.00 | 0.06 | 0.05 | 72 | 1012.8 |
| 20260507154005 | 57 | 122 | 1.0 | 6.0 | 0.00 | 0.06 | 0.05 | 72 | 1012.8 |
| 20260507153805 | 57 | 181 | 0.0 | 6.0 | 0.00 | 0.06 | 0.05 | 71 | 1012.9 |
| 20260507153603 | 57 | 258 | 0.0 | 6.0 | 0.00 | 0.06 | 0.05 | 70 | 1012.9 |
| 20260507153359 | 57 | 41 | 0.0 | 6.0 | 0.00 | 0.06 | 0.05 | 70 | 1012.8 |
| 20260507153149 | 57 | 115 | 0.0 | 4.0 | 0.00 | 0.06 | 0.05 | 72 | 1012.8 |
| 20260507152943 | 57 | 269 | 0.0 | 4.0 | 0.00 | 0.06 | 0.05 | 72 | 1012.9 |
| 20260507152740 | 57 | 245 | 0.0 | 4.0 | 0.00 | 0.06 | 0.05 | 71 | 1012.7 |
| 20260507152535 | 57 | 148 | 0.0 | 4.0 | 0.00 | 0.06 | 0.05 | 72 | 1012.7 |
| 20260507152330 | 57 | 263 | 0.0 | 4.0 | 0.00 | 0.06 | 0.05 | 72 | 1012.7 |
| 20260507152122 | 56 | 58 | 0.0 | 3.0 | 0.00 | 0.06 | 0.05 | 72 | 1012.8 |
| 20260507151912 | 56 | 278 | 0.0 | 3.0 | 0.00 | 0.06 | 0.05 | 72 | 1012.8 |
| 20260507151712 | 56 | 280 | 0.0 | 3.0 | 0.00 | 0.06 | 0.05 | 72 | 1012.8 |
| 20260507151502 | 56 | 253 | 0.0 | 3.0 | 0.00 | 0.06 | 0.05 | 74 | 1012.9 |
| 20260507151252 | 56 | 198 | 0.0 | 3.0 | 0.00 | 0.06 | 0.05 | 73 | 1012.8 |
| 20260507151051 | 56 | 214 | 0.0 | 3.0 | 0.00 | 0.06 | 0.05 | 74 | 1012.8 |
| 20260507150849 | 56 | 266 | 0.0 | 3.0 | 0.00 | 0.06 | 0.05 | 72 | 1012.8 |
| 20260507150646 | 56 | 264 | 0.0 | 3.0 | 0.00 | 0.06 | 0.05 | 73 | 1012.8 |
| 20260507150442 | 56 | 323 | 0.0 | 3.0 | 0.00 | 0.06 | 0.05 | 73 | 1012.8 |
| 20260507145929 | 56 | 231 | 0.0 | 2.0 | 0.00 | 0.06 | 0.05 | 73 | 1012.9 |
| 20260507145730 | 56 | 256 | 0.0 | 2.0 | 0.00 | 0.06 | 0.05 | 75 | 1012.8 |
| 20260507145523 | 56 | 263 | 0.0 | 2.0 | 0.00 | 0.06 | 0.05 | 74 | 1012.8 |
| 20260507145319 | 56 | 182 | 0.0 | 0.0 | 0.00 | 0.06 | 0.05 | 75 | 1012.8 |
| 20260507145113 | 56 | 263 | 0.0 | 3.0 | 0.00 | 0.06 | 0.05 | 73 | 1012.8 |
| 20260507144903 | 56 | 284 | 0.0 | 3.0 | 0.00 | 0.06 | 0.05 | 73 | 1012.8 |
| 20260507144658 | 56 | 222 | 0.0 | 3.0 | 0.00 | 0.06 | 0.05 | 73 | 1012.9 |
| 20260507144451 | 56 | 236 | 0.0 | 3.0 | 0.00 | 0.06 | 0.05 | 73 | 1012.8 |
| 20260507144248 | 56 | 259 | 0.0 | 3.0 | 0.00 | 0.06 | 0.05 | 74 | 1012.8 |
| 20260507144048 | 56 | 192 | 0.0 | 0.0 | 0.00 | 0.06 | 0.05 | 74 | 1012.9 |
| 20260507143844 | 56 | 266 | 0.0 | 5.0 | 0.00 | 0.06 | 0.05 | 74 | 1012.9 |
| 20260507143636 | 55 | 257 | 1.0 | 5.0 | 0.00 | 0.06 | 0.05 | 75 | 1012.9 |
| 20260507143432 | 55 | 284 | 1.0 | 5.0 | 0.00 | 0.06 | 0.05 | 75 | 1012.9 |
| 20260507143228 | 55 | 281 | 1.0 | 5.0 | 0.00 | 0.06 | 0.05 | 75 | 1012.9 |
| 20260507143026 | 56 | 283 | 1.0 | 5.0 | 0.00 | 0.06 | 0.05 | 74 | 1012.9 |
| 20260507142816 | 56 | 276 | 1.0 | 5.0 | 0.00 | 0.06 | 0.05 | 75 | 1012.9 |
| 20260507142610 | 56 | 295 | 1.0 | 5.0 | 0.00 | 0.06 | 0.05 | 75 | 1012.9 |
| 20260507142041 | 55 | 205 | 2.0 | 8.0 | 0.00 | 0.06 | 0.05 | 75 | 1012.9 |
| 20260507141835 | 55 | 259 | 3.0 | 8.0 | 0.00 | 0.06 | 0.05 | 75 | 1013.0 |
| 20260507141635 | 55 | 214 | 4.0 | 8.0 | 0.00 | 0.06 | 0.05 | 76 | 1012.8 |
| 20260507141116 | 56 | 302 | 4.0 | 8.0 | 0.00 | 0.06 | 0.05 | 74 | 1012.8 |
| 20260507140906 | 56 | 285 | 3.0 | 8.0 | 0.00 | 0.06 | 0.05 | 74 | 1012.9 |
| 20260507140706 | 56 | 293 | 2.0 | 8.0 | 0.00 | 0.06 | 0.05 | 73 | 1012.8 |
| 20260507140506 | 57 | 259 | 2.0 | 8.0 | 0.00 | 0.06 | 0.05 | 73 | 1012.9 |
| 20260507140256 | 57 | 233 | 2.0 | 6.0 | 0.00 | 0.06 | 0.05 | 72 | 1012.8 |
| 20260507140054 | 57 | 278 | 2.0 | 6.0 | 0.00 | 0.06 | 0.05 | 72 | 1012.9 |
| 20260507135848 | 58 | 303 | 1.0 | 6.0 | 0.00 | 0.06 | 0.05 | 72 | 1012.9 |
| 20260507135642 | 58 | 49 | 1.0 | 6.0 | 0.00 | 0.06 | 0.05 | 75 | 1012.8 |
| 20260507135125 | 58 | 217 | 0.0 | 5.0 | 0.00 | 0.06 | 0.05 | 74 | 1013.0 |
| 20260507134915 | 57 | 280 | 0.0 | 5.0 | 0.00 | 0.06 | 0.05 | 74 | 1013.0 |
| 20260507134705 | 57 | 323 | 0.0 | 5.0 | 0.00 | 0.06 | 0.05 | 74 | 1013.0 |
| 20260507134455 | 57 | 63 | 1.0 | 5.0 | 0.00 | 0.06 | 0.05 | 76 | 1013.0 |
| 20260507134251 | 56 | 293 | 1.0 | 5.0 | 0.00 | 0.06 | 0.05 | 75 | 1013.1 |
| 20260507134044 | 56 | 347 | 1.0 | 5.0 | 0.00 | 0.06 | 0.05 | 76 | 1013.1 |
| 20260507133525 | 56 | 293 | 1.0 | 5.0 | 0.00 | 0.06 | 0.05 | 74 | 1013.3 |
| 20260507133323 | 56 | 293 | 1.0 | 4.0 | 0.00 | 0.06 | 0.05 | 73 | 1013.3 |
| 20260507133114 | 56 | 284 | 0.0 | 4.0 | 0.00 | 0.06 | 0.05 | 72 | 1013.3 |
| 20260507132545 | 56 | 230 | 0.0 | 2.0 | 0.00 | 0.06 | 0.05 | 74 | 1013.4 |
| 20260507132336 | 56 | 297 | 0.0 | 2.0 | 0.00 | 0.06 | 0.05 | 76 | 1013.4 |
| 20260507132133 | 56 | 86 | 0.0 | 1.0 | 0.00 | 0.06 | 0.05 | 76 | 1013.4 |
| 20260507131931 | 56 | 108 | 0.0 | 1.0 | 0.00 | 0.06 | 0.05 | 77 | 1013.3 |
| 20260507131416 | 56 | 109 | 0.0 | 4.0 | 0.00 | 0.06 | 0.05 | 75 | 1013.3 |
| 20260507131211 | 56 | 288 | 0.0 | 4.0 | 0.00 | 0.06 | 0.05 | 76 | 1013.3 |
| 20260507131006 | 56 | 244 | 0.0 | 4.0 | 0.00 | 0.06 | 0.05 | 78 | 1013.3 |
| 20260507130759 | 56 | 61 | 0.0 | 3.0 | 0.00 | 0.06 | 0.05 | 77 | 1013.4 |
| 20260507130556 | 56 | 295 | 0.0 | 3.0 | 0.00 | 0.06 | 0.05 | 75 | 1013.4 |
| 20260507130025 | 55 | 269 | 1.0 | 5.0 | 0.00 | 0.06 | 0.05 | 77 | 1013.4 |
| 20260507125825 | 55 | 245 | 1.0 | 5.0 | 0.00 | 0.06 | 0.05 | 78 | 1013.4 |
| 20260507125626 | 54 | 311 | 1.0 | 5.0 | 0.00 | 0.06 | 0.05 | 80 | 1013.4 |
| 20260507125416 | 54 | 253 | 2.0 | 5.0 | 0.00 | 0.06 | 0.05 | 80 | 1013.4 |
| 20260507124849 | 54 | 295 | 1.0 | 8.0 | 0.00 | 0.06 | 0.05 | 79 | 1013.4 |
| 20260507124640 | 54 | 254 | 1.0 | 8.0 | 0.00 | 0.06 | 0.05 | 80 | 1013.4 |
| 20260507124435 | 54 | 271 | 1.0 | 8.0 | 0.00 | 0.06 | 0.05 | 80 | 1013.3 |
| 20260507123912 | 54 | 265 | 2.0 | 8.0 | 0.00 | 0.06 | 0.05 | 81 | 1013.4 |
| 20260507123342 | 55 | 280 | 2.0 | 8.0 | 0.00 | 0.06 | 0.05 | 80 | 1013.4 |
| 20260507123139 | 55 | 274 | 2.0 | 8.0 | 0.00 | 0.06 | 0.05 | 78 | 1013.4 |
| 20260507122940 | 55 | 250 | 1.0 | 8.0 | 0.00 | 0.06 | 0.05 | 78 | 1013.4 |
| 20260507122730 | 55 | 266 | 2.0 | 8.0 | 0.00 | 0.06 | 0.05 | 78 | 1013.3 |
| 20260507122157 | 54 | 283 | 2.0 | 8.0 | 0.00 | 0.06 | 0.05 | 79 | 1013.3 |
| 20260507121953 | 54 | 292 | 2.0 | 8.0 | 0.00 | 0.06 | 0.05 | 78 | 1013.3 |
| 20260507121748 | 55 | 298 | 1.0 | 8.0 | 0.00 | 0.06 | 0.05 | 78 | 1013.2 |
| 20260507121547 | 55 | 276 | 1.0 | 8.0 | 0.00 | 0.06 | 0.05 | 78 | 1013.3 |
| 20260507121347 | 55 | 274 | 1.0 | 5.0 | 0.00 | 0.06 | 0.05 | 76 | 1013.2 |
| 20260507121138 | 55 | 284 | 1.0 | 5.0 | 0.00 | 0.06 | 0.05 | 74 | 1013.2 |
| 20260507120603 | 55 | 258 | 0.0 | 5.0 | 0.00 | 0.06 | 0.05 | 72 | 1013.2 |
| 20260507120401 | 56 | 271 | 0.0 | 4.0 | 0.00 | 0.06 | 0.05 | 74 | 1013.2 |
| 20260507115840 | 56 | 285 | 0.0 | 4.0 | 0.00 | 0.06 | 0.05 | 69 | 1013.2 |
| 20260507115635 | 56 | 300 | 0.0 | 4.0 | 0.00 | 0.06 | 0.05 | 68 | 1013.2 |
| 20260507115436 | 55 | 292 | 0.0 | 3.0 | 0.00 | 0.06 | 0.05 | 71 | 1013.3 |
| 20260507115227 | 55 | 273 | 0.0 | 2.0 | 0.00 | 0.06 | 0.05 | 73 | 1013.2 |
| 20260507115028 | 54 | 287 | 0.0 | 5.0 | 0.00 | 0.06 | 0.05 | 71 | 1013.3 |
| 20260507114822 | 54 | 297 | 0.0 | 5.0 | 0.00 | 0.06 | 0.05 | 69 | 1013.3 |
| 20260507114616 | 54 | 297 | 1.0 | 5.0 | 0.00 | 0.06 | 0.05 | 69 | 1013.3 |
| 20260507114408 | 55 | 297 | 1.0 | 5.0 | 0.00 | 0.06 | 0.05 | 72 | 1013.4 |
| 20260507114209 | 54 | 156 | 0.0 | 3.0 | 0.00 | 0.06 | 0.05 | 74 | 1013.3 |
| 20260507113318 | 53 | 258 | 1.0 | 7.0 | 0.00 | 0.06 | 0.05 | 74 | 1013.3 |
| 20260507113114 | 53 | 240 | 2.0 | 7.0 | 0.00 | 0.06 | 0.05 | 74 | 1013.3 |
| 20260507112912 | 53 | 304 | 2.0 | 7.0 | 0.00 | 0.06 | 0.05 | 75 | 1013.4 |
| 20260507112705 | 53 | 276 | 2.0 | 7.0 | 0.00 | 0.06 | 0.05 | 74 | 1013.4 |
| 20260507112143 | 53 | 297 | 2.0 | 7.0 | 0.00 | 0.06 | 0.05 | 74 | 1013.3 |
| 20260507111933 | 53 | 288 | 2.0 | 6.0 | 0.00 | 0.06 | 0.05 | 76 | 1013.4 |
| 20260507111409 | 54 | 293 | 2.0 | 6.0 | 0.00 | 0.06 | 0.05 | 74 | 1013.4 |
| 20260507111204 | 54 | 305 | 1.0 | 6.0 | 0.00 | 0.06 | 0.05 | 74 | 1013.4 |
| 20260507111005 | 54 | 252 | 2.0 | 6.0 | 0.00 | 0.06 | 0.05 | 73 | 1013.3 |
| 20260507110803 | 54 | 295 | 2.0 | 6.0 | 0.00 | 0.06 | 0.05 | 74 | 1013.4 |
| 20260507110558 | 54 | 285 | 3.0 | 6.0 | 0.00 | 0.06 | 0.05 | 72 | 1013.3 |
| 20260507110358 | 54 | 300 | 2.0 | 6.0 | 0.00 | 0.06 | 0.05 | 72 | 1013.3 |
| 20260507110148 | 54 | 270 | 2.0 | 6.0 | 0.00 | 0.06 | 0.05 | 72 | 1013.2 |
| 20260507105946 | 55 | 297 | 1.0 | 6.0 | 0.00 | 0.06 | 0.05 | 69 | 1013.3 |
| 20260507105747 | 55 | 291 | 0.0 | 5.0 | 0.00 | 0.06 | 0.05 | 69 | 1013.3 |
| 20260507104903 | 55 | 108 | 0.0 | 0.0 | 0.00 | 0.06 | 0.05 | 74 | 1013.4 |
| 20260507104657 | 55 | 109 | 0.0 | 0.0 | 0.00 | 0.06 | 0.05 | 73 | 1013.4 |
| 20260507104449 | 54 | 109 | 0.0 | 0.0 | 0.00 | 0.06 | 0.05 | 74 | 1013.4 |
| 20260507103924 | 54 | 103 | 0.0 | 3.0 | 0.00 | 0.07 | 0.05 | 71 | 1013.4 |
| 20260507103718 | 54 | 108 | 0.0 | 3.0 | 0.00 | 0.07 | 0.05 | 71 | 1013.3 |
| 20260507103516 | 53 | 252 | 0.0 | 3.0 | 0.00 | 0.07 | 0.05 | 72 | 1013.4 |
| 20260507103312 | 53 | 231 | 0.0 | 3.0 | 0.00 | 0.07 | 0.05 | 70 | 1013.4 |
| 20260507103108 | 53 | 231 | 0.0 | 3.0 | 0.00 | 0.07 | 0.05 | 72 | 1013.5 |
| 20260507102547 | 53 | 250 | 0.0 | 3.0 | 0.00 | 0.07 | 0.05 | 75 | 1013.4 |
| 20260507102341 | 53 | 237 | 0.0 | 1.0 | 0.00 | 0.07 | 0.05 | 76 | 1013.4 |
| 20260507102141 | 53 | 300 | 0.0 | 1.0 | 0.00 | 0.07 | 0.05 | 74 | 1013.4 |
| 20260507101936 | 53 | 281 | 0.0 | 1.0 | 0.00 | 0.07 | 0.05 | 76 | 1013.5 |
| 20260507101413 | 52 | 293 | 0.0 | 0.0 | 0.00 | 0.07 | 0.05 | 75 | 1013.4 |
| 20260507101207 | 52 | 294 | 0.0 | 2.0 | 0.00 | 0.07 | 0.05 | 74 | 1013.5 |
| 20260507101007 | 52 | 293 | 0.0 | 2.0 | 0.00 | 0.07 | 0.05 | 73 | 1013.4 |
| 20260507100759 | 52 | 291 | 0.0 | 2.0 | 0.00 | 0.07 | 0.05 | 74 | 1013.4 |
| 20260507100549 | 52 | 281 | 0.0 | 0.0 | 0.00 | 0.07 | 0.05 | 75 | 1013.4 |
| 20260507100027 | 53 | 280 | 0.0 | 2.0 | 0.00 | 0.09 | 0.05 | 78 | 1013.4 |
| 20260507095822 | 53 | 279 | 0.0 | 3.0 | 0.00 | 0.09 | 0.05 | 78 | 1013.5 |
| 20260507095612 | 52 | 278 | 0.0 | 3.0 | 0.00 | 0.10 | 0.05 | 78 | 1013.4 |
| 20260507095405 | 53 | 277 | 1.0 | 3.0 | 0.00 | 0.10 | 0.05 | 79 | 1013.5 |
| 20260507095157 | 52 | 341 | 1.0 | 3.0 | 0.00 | 0.11 | 0.05 | 79 | 1013.4 |
| 20260507094954 | 52 | 269 | 1.0 | 3.0 | 0.00 | 0.11 | 0.05 | 79 | 1013.4 |
| 20260507094754 | 52 | 279 | 1.0 | 3.0 | 0.00 | 0.11 | 0.05 | 79 | 1013.4 |
| 20260507094235 | 53 | 281 | 0.0 | 3.0 | 0.00 | 0.13 | 0.05 | 77 | 1013.4 |
| 20260507094029 | 53 | 291 | 0.0 | 3.0 | 0.00 | 0.14 | 0.05 | 75 | 1013.4 |
| 20260507093821 | 53 | 278 | 0.0 | 2.0 | 0.00 | 0.14 | 0.05 | 77 | 1013.4 |
| 20260507093621 | 54 | 286 | 0.0 | 5.0 | 0.00 | 0.14 | 0.05 | 75 | 1013.4 |
| 20260507093413 | 53 | 277 | 0.0 | 5.0 | 0.00 | 0.15 | 0.05 | 76 | 1013.4 |
| 20260507092849 | 53 | 283 | 1.0 | 5.0 | 0.00 | 0.16 | 0.05 | 75 | 1013.5 |
| 20260507092646 | 53 | 230 | 1.0 | 5.0 | 0.00 | 0.17 | 0.05 | 76 | 1013.4 |
| 20260507092443 | 53 | 259 | 1.0 | 5.0 | 0.00 | 0.18 | 0.05 | 77 | 1013.5 |
| 20260507091919 | 54 | 244 | 1.0 | 5.0 | 0.00 | 0.20 | 0.05 | 75 | 1013.4 |
| 20260507091344 | 54 | 240 | 0.0 | 4.0 | 0.00 | 0.23 | 0.05 | 78 | 1013.4 |
| 20260507091141 | 54 | 239 | 0.0 | 3.0 | 0.00 | 0.25 | 0.05 | 80 | 1013.4 |
| 20260507090939 | 53 | 295 | 1.0 | 5.0 | 0.00 | 0.25 | 0.05 | 78 | 1013.4 |
| 20260507090739 | 53 | 295 | 1.0 | 5.0 | 0.00 | 0.26 | 0.05 | 81 | 1013.4 |
| 20260507090535 | 53 | 290 | 1.0 | 5.0 | 0.00 | 0.29 | 0.05 | 81 | 1013.4 |
| 20260507090006 | 52 | 231 | 0.0 | 5.0 | 0.00 | 0.31 | 0.05 | 80 | 1013.5 |
| 20260507085800 | 52 | 228 | 0.0 | 4.0 | 0.00 | 0.33 | 0.05 | 81 | 1013.4 |
| 20260507085556 | 52 | 231 | 1.0 | 4.0 | 0.00 | 0.33 | 0.05 | 82 | 1013.4 |
| 20260507085355 | 52 | 235 | 0.0 | 4.0 | 0.00 | 0.34 | 0.05 | 83 | 1013.4 |
| 20260507085147 | 51 | 212 | 0.0 | 4.0 | 0.00 | 0.35 | 0.05 | 83 | 1013.5 |
| 20260507084313 | 50 | 228 | 0.0 | 0.0 | 0.00 | 0.41 | 0.05 | 82 | 1013.5 |
| 20260507084114 | 51 | 228 | 1.0 | 4.0 | 0.00 | 0.42 | 0.05 | 82 | 1013.4 |
| 20260507083229 | 50 | 214 | 1.0 | 5.0 | 0.00 | 0.44 | 0.05 | 84 | 1013.4 |
| 20260507083021 | 50 | 228 | 1.0 | 5.0 | 0.00 | 0.45 | 0.05 | 85 | 1013.5 |
| 20260507082817 | 50 | 229 | 1.0 | 5.0 | 0.00 | 0.45 | 0.05 | 87 | 1013.5 |
| 20260507082611 | 50 | 269 | 2.0 | 5.0 | 0.00 | 0.46 | 0.05 | 84 | 1013.4 |
| 20260507082401 | 50 | 240 | 1.0 | 5.0 | 0.00 | 0.46 | 0.05 | 85 | 1013.4 |
| 20260507082158 | 50 | 238 | 1.0 | 5.0 | 0.00 | 0.47 | 0.05 | 84 | 1013.4 |
| 20260507081630 | 51 | 242 | 0.0 | 5.0 | 0.00 | 0.48 | 0.05 | 86 | 1013.4 |
| 20260507081425 | 51 | 230 | 0.0 | 5.0 | 0.00 | 0.48 | 0.05 | 86 | 1013.4 |
| 20260507081226 | 51 | 230 | 0.0 | 5.0 | 0.00 | 0.48 | 0.05 | 86 | 1013.4 |
| 20260507081026 | 51 | 257 | 0.0 | 5.0 | 0.00 | 0.48 | 0.05 | 87 | 1013.3 |
| 20260507080819 | 50 | 254 | 0.0 | 5.0 | 0.00 | 0.48 | 0.05 | 87 | 1013.4 |
| 20260507080612 | 50 | 238 | 0.0 | 5.0 | 0.00 | 0.48 | 0.05 | 85 | 1013.4 |
| 20260507080406 | 51 | 237 | 1.0 | 5.0 | 0.00 | 0.48 | 0.05 | 86 | 1013.4 |
| 20260507080159 | 50 | 239 | 1.0 | 5.0 | 0.00 | 0.48 | 0.05 | 88 | 1013.3 |
| 20260507075948 | 50 | 248 | 1.0 | 5.0 | 0.00 | 0.48 | 0.05 | 87 | 1013.3 |
| 20260507075746 | 50 | 226 | 1.0 | 4.0 | 0.00 | 0.48 | 0.05 | 88 | 1013.3 |
| 20260507075541 | 50 | 227 | 1.0 | 4.0 | 0.00 | 0.48 | 0.05 | 87 | 1013.4 |
| 20260507075335 | 50 | 236 | 1.0 | 4.0 | 0.00 | 0.48 | 0.05 | 88 | 1013.4 |
| 20260507075126 | 49 | 273 | 1.0 | 4.0 | 0.00 | 0.48 | 0.05 | 89 | 1013.3 |
| 20260507074920 | 49 | 232 | 1.0 | 4.0 | 0.00 | 0.48 | 0.05 | 89 | 1013.3 |
| 20260507074359 | 49 | 238 | 1.0 | 4.0 | 0.00 | 0.48 | 0.05 | 88 | 1013.3 |
| 20260507074151 | 49 | 232 | 0.0 | 4.0 | 0.00 | 0.48 | 0.05 | 89 | 1013.3 |
| 20260507073947 | 49 | 238 | 0.0 | 4.0 | 0.00 | 0.48 | 0.05 | 89 | 1013.4 |
| 20260507073740 | 48 | 238 | 0.0 | 2.0 | 0.00 | 0.48 | 0.05 | 91 | 1013.2 |
| 20260507073536 | 48 | 238 | 0.0 | 2.0 | 0.00 | 0.48 | 0.05 | 91 | 1013.2 |
| 20260507073334 | 48 | 232 | 0.0 | 2.0 | 0.00 | 0.48 | 0.05 | 91 | 1013.3 |
| 20260507073133 | 48 | 238 | 0.0 | 4.0 | 0.00 | 0.48 | 0.05 | 91 | 1013.2 |
| 20260507072606 | 47 | 238 | 1.0 | 4.0 | 0.00 | 0.48 | 0.05 | 91 | 1013.2 |
| 20260507072403 | 47 | 226 | 1.0 | 4.0 | 0.00 | 0.48 | 0.05 | 92 | 1013.3 |
| 20260507072154 | 47 | 233 | 1.0 | 4.0 | 0.00 | 0.48 | 0.05 | 91 | 1013.2 |
| 20260507071950 | 47 | 262 | 0.0 | 4.0 | 0.00 | 0.48 | 0.05 | 90 | 1013.2 |
| 20260507071751 | 47 | 231 | 0.0 | 4.0 | 0.00 | 0.48 | 0.05 | 90 | 1013.2 |
| 20260507071548 | 47 | 241 | 0.0 | 4.0 | 0.00 | 0.48 | 0.05 | 91 | 1013.2 |
| 20260507071343 | 47 | 276 | 0.0 | 1.0 | 0.00 | 0.48 | 0.05 | 92 | 1013.2 |
| 20260507071138 | 47 | 229 | 0.0 | 0.0 | 0.00 | 0.48 | 0.05 | 92 | 1013.2 |
| 20260507070613 | 47 | 237 | 1.0 | 4.0 | 0.00 | 0.48 | 0.05 | 92 | 1013.0 |
| 20260507070411 | 47 | 235 | 1.0 | 4.0 | 0.00 | 0.48 | 0.05 | 92 | 1013.1 |
| 20260507070207 | 47 | 240 | 1.0 | 4.0 | 0.00 | 0.48 | 0.05 | 92 | 1013.0 |
| 20260507065958 | 47 | 240 | 1.0 | 4.0 | 0.00 | 0.48 | 0.05 | 92 | 1013.1 |
| 20260507065752 | 47 | 245 | 0.0 | 4.0 | 0.00 | 0.48 | 0.05 | 92 | 1013.0 |
| 20260507065553 | 47 | 248 | 0.0 | 4.0 | 0.00 | 0.48 | 0.05 | 93 | 1013.0 |
| 20260507065020 | 46 | 245 | 0.0 | 4.0 | 0.00 | 0.48 | 0.05 | 92 | 1013.0 |
| 20260507064814 | 46 | 236 | 1.0 | 4.0 | 0.00 | 0.48 | 0.05 | 93 | 1012.9 |
| 20260507064610 | 46 | 243 | 1.0 | 4.0 | 0.00 | 0.48 | 0.05 | 92 | 1013.0 |
| 20260507064400 | 46 | 252 | 1.0 | 4.0 | 0.00 | 0.48 | 0.05 | 93 | 1012.9 |
| 20260507064157 | 46 | 239 | 1.0 | 4.0 | 0.00 | 0.48 | 0.05 | 92 | 1012.9 |
| 20260507063955 | 46 | 236 | 1.0 | 3.0 | 0.00 | 0.48 | 0.05 | 93 | 1013.0 |
| 20260507063751 | 46 | 263 | 0.0 | 3.0 | 0.00 | 0.48 | 0.05 | 93 | 1012.9 |
| 20260507063547 | 46 | 234 | 0.0 | 4.0 | 0.00 | 0.48 | 0.05 | 93 | 1012.8 |
| 20260507063342 | 46 | 219 | 0.0 | 4.0 | 0.00 | 0.48 | 0.05 | 93 | 1012.9 |
| 20260507063133 | 46 | 224 | 0.0 | 4.0 | 0.00 | 0.48 | 0.05 | 93 | 1012.8 |
| 20260507062929 | 46 | 214 | 0.0 | 4.0 | 0.00 | 0.48 | 0.05 | 93 | 1012.9 |
| 20260507062416 | 46 | 214 | 1.0 | 5.0 | 0.00 | 0.48 | 0.05 | 92 | 1012.8 |
| 20260507061859 | 46 | 219 | 1.0 | 5.0 | 0.00 | 0.48 | 0.05 | 93 | 1012.8 |
| 20260507061652 | 46 | 240 | 1.0 | 5.0 | 0.00 | 0.48 | 0.05 | 93 | 1012.7 |
| 20260507061452 | 46 | 230 | 1.0 | 8.0 | 0.00 | 0.48 | 0.05 | 93 | 1012.8 |
| 20260507061244 | 46 | 231 | 1.0 | 8.0 | 0.00 | 0.48 | 0.05 | 94 | 1012.7 |
| 20260507061039 | 46 | 226 | 1.0 | 8.0 | 0.00 | 0.48 | 0.05 | 94 | 1012.6 |
| 20260507060837 | 46 | 230 | 2.0 | 8.0 | 0.00 | 0.48 | 0.05 | 94 | 1012.6 |
| 20260507060627 | 46 | 236 | 2.0 | 8.0 | 0.00 | 0.48 | 0.05 | 94 | 1012.7 |
| 20260507060419 | 45 | 240 | 2.0 | 8.0 | 0.00 | 0.48 | 0.05 | 94 | 1012.7 |
| 20260507055851 | 45 | 231 | 2.0 | 8.0 | 0.00 | 0.48 | 0.05 | 93 | 1012.6 |
| 20260507055651 | 45 | 216 | 2.0 | 8.0 | 0.00 | 0.48 | 0.05 | 94 | 1012.6 |
| 20260507055444 | 45 | 229 | 2.0 | 6.0 | 0.00 | 0.48 | 0.05 | 94 | 1012.6 |
| 20260507055237 | 45 | 238 | 2.0 | 6.0 | 0.00 | 0.48 | 0.05 | 95 | 1012.6 |
| 20260507055033 | 45 | 228 | 2.0 | 6.0 | 0.00 | 0.48 | 0.05 | 95 | 1012.6 |
| 20260507054833 | 45 | 246 | 2.0 | 6.0 | 0.00 | 0.48 | 0.05 | 96 | 1012.6 |
| 20260507054628 | 45 | 204 | 1.0 | 6.0 | 0.00 | 0.48 | 0.05 | 96 | 1012.6 |
| 20260507054428 | 45 | 245 | 1.0 | 6.0 | 0.00 | 0.48 | 0.05 | 96 | 1012.5 |
| 20260507054222 | 44 | 233 | 1.0 | 4.0 | 0.00 | 0.48 | 0.05 | 97 | 1012.6 |
| 20260507054017 | 44 | 217 | 1.0 | 4.0 | 0.00 | 0.48 | 0.05 | 97 | 1012.6 |
| 20260507053135 | 44 | 219 | 2.0 | 5.0 | 0.00 | 0.48 | 0.05 | 97 | 1012.5 |
| 20260507052254 | 44 | 236 | 2.0 | 6.0 | 0.00 | 0.48 | 0.05 | 97 | 1012.5 |
| 20260507051403 | 44 | 207 | 2.0 | 6.0 | 0.00 | 0.48 | 0.05 | 97 | 1012.4 |
| 20260507051156 | 44 | 242 | 3.0 | 6.0 | 0.00 | 0.48 | 0.05 | 96 | 1012.4 |
| 20260507050946 | 44 | 234 | 3.0 | 6.0 | 0.00 | 0.48 | 0.05 | 96 | 1012.4 |
| 20260507050742 | 44 | 238 | 3.0 | 5.0 | 0.00 | 0.48 | 0.05 | 96 | 1012.4 |
| 20260507050532 | 44 | 255 | 2.0 | 5.0 | 0.00 | 0.48 | 0.05 | 96 | 1012.2 |
| 20260507050329 | 44 | 244 | 2.0 | 5.0 | 0.00 | 0.48 | 0.05 | 95 | 1012.3 |
| 20260507050130 | 44 | 225 | 1.0 | 5.0 | 0.00 | 0.48 | 0.05 | 95 | 1012.2 |
| 20260507045927 | 44 | 219 | 1.0 | 5.0 | 0.00 | 0.48 | 0.05 | 95 | 1012.2 |
| 20260507045723 | 44 | 252 | 1.0 | 5.0 | 0.00 | 0.48 | 0.05 | 95 | 1012.3 |
| 20260507045513 | 44 | 227 | 1.0 | 5.0 | 0.00 | 0.48 | 0.05 | 94 | 1012.2 |
| 20260507045313 | 44 | 238 | 1.0 | 5.0 | 0.00 | 0.48 | 0.05 | 94 | 1012.2 |
| 20260507045115 | 44 | 246 | 1.0 | 5.0 | 0.00 | 0.48 | 0.05 | 94 | 1012.2 |
| 20260507044906 | 44 | 234 | 0.0 | 5.0 | 0.00 | 0.48 | 0.05 | 93 | 1012.2 |
| 20260507044657 | 45 | 233 | 0.0 | 5.0 | 0.00 | 0.48 | 0.05 | 93 | 1012.1 |
| 20260507044457 | 45 | 238 | 0.0 | 3.0 | 0.00 | 0.48 | 0.05 | 92 | 1012.1 |
| 20260507043616 | 45 | 254 | 0.0 | 0.0 | 0.00 | 0.48 | 0.05 | 91 | 1012.0 |
| 20260507043416 | 45 | 255 | 0.0 | 3.0 | 0.00 | 0.48 | 0.05 | 91 | 1012.0 |
| 20260507043207 | 45 | 237 | 0.0 | 3.0 | 0.00 | 0.48 | 0.05 | 90 | 1012.0 |
| 20260507043005 | 45 | 242 | 0.0 | 3.0 | 0.00 | 0.48 | 0.05 | 90 | 1012.0 |
| 20260507042802 | 45 | 217 | 0.0 | 2.0 | 0.00 | 0.48 | 0.05 | 90 | 1012.0 |
| 20260507042601 | 45 | 220 | 0.0 | 2.0 | 0.00 | 0.48 | 0.05 | 90 | 1012.0 |
| 20260507042355 | 45 | 212 | 0.0 | 1.0 | 0.00 | 0.48 | 0.05 | 90 | 1012.0 |
| 20260507042156 | 45 | 240 | 0.0 | 4.0 | 0.00 | 0.48 | 0.05 | 90 | 1012.0 |
| 20260507041952 | 45 | 240 | 0.0 | 4.0 | 0.00 | 0.48 | 0.05 | 90 | 1011.8 |
| 20260507041752 | 45 | 235 | 0.0 | 4.0 | 0.00 | 0.48 | 0.05 | 90 | 1011.9 |
| 20260507041553 | 45 | 239 | 1.0 | 4.0 | 0.00 | 0.48 | 0.05 | 90 | 1011.9 |
| 20260507041345 | 45 | 199 | 1.0 | 4.0 | 0.00 | 0.48 | 0.05 | 90 | 1011.8 |
| 20260507040817 | 45 | 224 | 1.0 | 6.0 | 0.00 | 0.48 | 0.05 | 90 | 1011.7 |
| 20260507040611 | 45 | 225 | 1.0 | 6.0 | 0.00 | 0.48 | 0.05 | 89 | 1011.7 |
| 20260507040403 | 45 | 135 | 1.0 | 6.0 | 0.00 | 0.48 | 0.05 | 90 | 1011.7 |
| 20260507040203 | 45 | 145 | 1.0 | 6.0 | 0.00 | 0.48 | 0.05 | 90 | 1011.7 |
| 20260507040003 | 45 | 209 | 1.0 | 6.0 | 0.00 | 0.48 | 0.05 | 90 | 1011.7 |
| 20260507035756 | 45 | 233 | 1.0 | 6.0 | 0.00 | 0.48 | 0.05 | 90 | 1011.7 |
| 20260507034552 | 45 | 205 | 0.0 | 4.0 | 0.00 | 0.48 | 0.05 | 91 | 1011.7 |
| 20260507034353 | 45 | 206 | 1.0 | 4.0 | 0.00 | 0.48 | 0.05 | 91 | 1011.6 |
| 20260507034146 | 45 | 188 | 1.0 | 4.0 | 0.00 | 0.48 | 0.05 | 91 | 1011.7 |
| 20260507033626 | 45 | 243 | 1.0 | 4.0 | 0.00 | 0.48 | 0.05 | 91 | 1011.7 |
| 20260507033427 | 45 | 169 | 1.0 | 4.0 | 0.00 | 0.48 | 0.05 | 91 | 1011.6 |
| 20260507032859 | 45 | 240 | 2.0 | 5.0 | 0.00 | 0.48 | 0.05 | 91 | 1011.6 |
| 20260507032651 | 45 | 207 | 1.0 | 5.0 | 0.00 | 0.48 | 0.05 | 91 | 1011.6 |
| 20260507032441 | 45 | 236 | 2.0 | 5.0 | 0.00 | 0.48 | 0.05 | 91 | 1011.5 |
| 20260507032234 | 45 | 208 | 2.0 | 7.0 | 0.00 | 0.48 | 0.05 | 91 | 1011.5 |
| 20260507032031 | 45 | 237 | 2.0 | 7.0 | 0.00 | 0.48 | 0.05 | 91 | 1011.5 |
| 20260507031823 | 45 | 219 | 2.0 | 7.0 | 0.00 | 0.48 | 0.05 | 91 | 1011.5 |
| 20260507031615 | 45 | 236 | 2.0 | 7.0 | 0.00 | 0.48 | 0.05 | 90 | 1011.4 |
| 20260507030736 | 45 | 204 | 2.0 | 7.0 | 0.00 | 0.48 | 0.05 | 91 | 1011.4 |
| 20260507030532 | 45 | 257 | 2.0 | 7.0 | 0.00 | 0.48 | 0.05 | 91 | 1011.4 |
| 20260507030325 | 45 | 204 | 2.0 | 7.0 | 0.00 | 0.48 | 0.05 | 91 | 1011.4 |
| 20260507030117 | 45 | 214 | 2.0 | 7.0 | 0.00 | 0.48 | 0.05 | 91 | 1011.5 |
| 20260507025917 | 45 | 227 | 2.0 | 7.0 | 0.00 | 0.48 | 0.05 | 91 | 1011.4 |
| 20260507025352 | 44 | 226 | 2.0 | 5.0 | 0.00 | 0.48 | 0.05 | 92 | 1011.5 |
| 20260507025147 | 44 | 245 | 2.0 | 5.0 | 0.00 | 0.48 | 0.05 | 93 | 1011.5 |
| 20260507024942 | 44 | 257 | 2.0 | 5.0 | 0.00 | 0.48 | 0.05 | 93 | 1011.5 |
| 20260507024424 | 44 | 228 | 2.0 | 5.0 | 0.00 | 0.48 | 0.05 | 93 | 1011.5 |
| 20260507024214 | 44 | 207 | 1.0 | 5.0 | 0.00 | 0.48 | 0.05 | 93 | 1011.5 |
| 20260507024009 | 44 | 247 | 1.0 | 5.0 | 0.00 | 0.48 | 0.05 | 92 | 1011.6 |
| 20260507023442 | 45 | 234 | 2.0 | 5.0 | 0.00 | 0.48 | 0.05 | 91 | 1011.6 |
| 20260507023234 | 45 | 226 | 2.0 | 5.0 | 0.00 | 0.48 | 0.05 | 91 | 1011.5 |
| 20260507023027 | 45 | 231 | 2.0 | 5.0 | 0.00 | 0.48 | 0.05 | 91 | 1011.5 |
| 20260507022821 | 45 | 254 | 2.0 | 5.0 | 0.00 | 0.48 | 0.05 | 90 | 1011.6 |
| 20260507022612 | 45 | 210 | 2.0 | 5.0 | 0.00 | 0.48 | 0.05 | 90 | 1011.5 |
| 20260507022044 | 45 | 213 | 2.0 | 6.0 | 0.00 | 0.48 | 0.05 | 91 | 1011.4 |
| 20260507021836 | 45 | 186 | 2.0 | 6.0 | 0.00 | 0.48 | 0.05 | 91 | 1011.4 |
| 20260507021634 | 45 | 219 | 2.0 | 6.0 | 0.00 | 0.48 | 0.05 | 91 | 1011.5 |
| 20260507021434 | 45 | 213 | 2.0 | 6.0 | 0.00 | 0.48 | 0.05 | 91 | 1011.5 |
| 20260507021229 | 45 | 246 | 2.0 | 6.0 | 0.00 | 0.48 | 0.05 | 91 | 1011.4 |
| 20260507021028 | 45 | 191 | 2.0 | 6.0 | 0.00 | 0.48 | 0.05 | 91 | 1011.4 |
| 20260507020826 | 45 | 197 | 2.0 | 6.0 | 0.00 | 0.48 | 0.05 | 91 | 1011.4 |
| 20260507020624 | 45 | 247 | 2.0 | 6.0 | 0.00 | 0.48 | 0.05 | 91 | 1011.4 |
| 20260507020420 | 45 | 217 | 2.0 | 6.0 | 0.00 | 0.48 | 0.05 | 92 | 1011.4 |
| 20260507020214 | 44 | 196 | 2.0 | 6.0 | 0.00 | 0.48 | 0.05 | 92 | 1011.4 |
| 20260507020011 | 44 | 237 | 2.0 | 7.0 | 0.00 | 0.48 | 0.05 | 93 | 1011.4 |
| 20260507015802 | 44 | 203 | 2.0 | 7.0 | 0.00 | 0.48 | 0.05 | 93 | 1011.4 |
| 20260507015600 | 44 | 240 | 2.0 | 7.0 | 0.00 | 0.48 | 0.05 | 94 | 1011.3 |
| 20260507015354 | 44 | 205 | 2.0 | 7.0 | 0.00 | 0.48 | 0.05 | 94 | 1011.4 |
| 20260507015152 | 44 | 222 | 1.0 | 7.0 | 0.00 | 0.48 | 0.05 | 95 | 1011.3 |
| 20260507014948 | 44 | 226 | 1.0 | 7.0 | 0.00 | 0.48 | 0.05 | 95 | 1011.4 |
| 20260507014746 | 44 | 217 | 1.0 | 7.0 | 0.00 | 0.48 | 0.05 | 95 | 1011.3 |
| 20260507014221 | 44 | 205 | 2.0 | 7.0 | 0.00 | 0.48 | 0.05 | 96 | 1011.3 |
| 20260507014015 | 44 | 338 | 2.0 | 7.0 | 0.00 | 0.48 | 0.05 | 96 | 1011.3 |
| 20260507013809 | 44 | 205 | 2.0 | 7.0 | 0.00 | 0.48 | 0.05 | 96 | 1011.2 |
| 20260507013237 | 44 | 169 | 2.0 | 7.0 | 0.00 | 0.48 | 0.05 | 96 | 1011.2 |
| 20260507012354 | 44 | 227 | 2.0 | 6.0 | 0.00 | 0.48 | 0.05 | 96 | 1011.1 |
| 20260507012148 | 43 | 236 | 2.0 | 6.0 | 0.00 | 0.48 | 0.05 | 96 | 1011.1 |
| 20260507011943 | 43 | 264 | 2.0 | 6.0 | 0.00 | 0.48 | 0.05 | 96 | 1011.1 |
| 20260507011419 | 43 | 193 | 2.0 | 5.0 | 0.00 | 0.48 | 0.05 | 96 | 1011.1 |
| 20260507011003 | 43 | 178 | 1.0 | 5.0 | 0.00 | 0.48 | 0.05 | 97 | 1011.0 |
| 20260507010758 | 43 | 224 | 1.0 | 5.0 | 0.00 | 0.48 | 0.05 | 97 | 1011.2 |
| 20260507010554 | 43 | 221 | 1.0 | 5.0 | 0.00 | 0.48 | 0.05 | 97 | 1011.1 |
| 20260507010344 | 43 | 216 | 1.0 | 7.0 | 0.00 | 0.48 | 0.05 | 97 | 1011.2 |
| 20260507005813 | 43 | 281 | 2.0 | 7.0 | 0.00 | 0.48 | 0.05 | 97 | 1011.2 |
| 20260507005613 | 43 | 217 | 2.0 | 7.0 | 0.00 | 0.48 | 0.05 | 97 | 1011.3 |
| 20260507005049 | 43 | 221 | 2.0 | 8.0 | 0.00 | 0.48 | 0.05 | 97 | 1011.2 |
| 20260507004848 | 43 | 207 | 2.0 | 8.0 | 0.00 | 0.48 | 0.05 | 97 | 1011.2 |
| 20260507004330 | 43 | 210 | 2.0 | 8.0 | 0.00 | 0.48 | 0.05 | 97 | 1011.2 |
| 20260507004123 | 43 | 230 | 2.0 | 8.0 | 0.00 | 0.48 | 0.05 | 97 | 1011.3 |
| 20260507003923 | 43 | 206 | 2.0 | 8.0 | 0.00 | 0.48 | 0.05 | 97 | 1011.3 |
| 20260507003718 | 43 | 212 | 2.0 | 8.0 | 0.00 | 0.48 | 0.05 | 97 | 1011.2 |
| 20260507003159 | 43 | 235 | 1.0 | 8.0 | 0.00 | 0.48 | 0.05 | 97 | 1011.2 |
| 20260507002955 | 43 | 229 | 1.0 | 8.0 | 0.00 | 0.48 | 0.05 | 97 | 1011.2 |
| 20260507002752 | 43 | 210 | 2.0 | 8.0 | 0.00 | 0.48 | 0.05 | 97 | 1011.2 |
| 20260507002233 | 43 | 229 | 2.0 | 8.0 | 0.00 | 0.48 | 0.05 | 97 | 1011.2 |
| 20260507001718 | 43 | 241 | 3.0 | 8.0 | 0.00 | 0.48 | 0.05 | 97 | 1011.2 |
| 20260507001512 | 43 | 219 | 3.0 | 8.0 | 0.00 | 0.48 | 0.05 | 97 | 1011.2 |
| 20260507001313 | 43 | 229 | 3.0 | 8.0 | 0.00 | 0.48 | 0.04 | 97 | 1011.2 |
| 20260507000742 | 43 | 190 | 2.0 | 8.0 | 0.00 | 0.48 | 0.04 | 97 | 1011.2 |
| 20260507000539 | 43 | 243 | 2.0 | 8.0 | 0.00 | 0.48 | 0.04 | 97 | 1011.3 |
| 20260507000339 | 43 | 214 | 2.0 | 8.0 | 0.00 | 0.48 | 0.04 | 97 | 1011.3 |
| 20260507000138 | 43 | 224 | 1.0 | 8.0 | 0.00 | 0.48 | 0.04 | 97 | 1011.3 |
| 20260506235928 | 43 | 131 | 1.0 | 7.0 | 0.00 | 0.48 | 0.04 | 97 | 1011.2 |
| 20260506235723 | 43 | 233 | 1.0 | 5.0 | 0.00 | 0.48 | 0.04 | 97 | 1011.2 |
| 20260506235515 | 43 | 256 | 1.0 | 6.0 | 0.00 | 0.48 | 0.04 | 97 | 1011.3 |
| 20260506235307 | 43 | 226 | 2.0 | 6.0 | 0.00 | 0.48 | 0.04 | 97 | 1011.3 |
| 20260506235102 | 44 | 226 | 2.0 | 6.0 | 0.00 | 0.48 | 0.04 | 97 | 1011.3 |
| 20260506234853 | 44 | 205 | 2.0 | 6.0 | 0.00 | 0.48 | 0.04 | 97 | 1011.3 |
| 20260506234650 | 44 | 208 | 2.0 | 9.0 | 0.00 | 0.48 | 0.04 | 97 | 1011.3 |
| 20260506234448 | 44 | 258 | 2.0 | 9.0 | 0.00 | 0.48 | 0.04 | 97 | 1011.2 |
| 20260506234246 | 44 | 179 | 3.0 | 9.0 | 0.00 | 0.48 | 0.04 | 97 | 1011.3 |
| 20260506234041 | 44 | 259 | 3.0 | 9.0 | 0.00 | 0.48 | 0.04 | 97 | 1011.3 |
| 20260506233516 | 44 | 233 | 3.0 | 10.0 | 0.00 | 0.48 | 0.04 | 97 | 1011.3 |
| 20260506233311 | 44 | 227 | 3.0 | 10.0 | 0.00 | 0.48 | 0.04 | 97 | 1011.3 |
| 20260506232431 | 44 | 220 | 4.0 | 10.0 | 0.00 | 0.48 | 0.04 | 97 | 1011.4 |
| 20260506232222 | 44 | 263 | 4.0 | 10.0 | 0.00 | 0.48 | 0.04 | 97 | 1011.3 |
| 20260506232015 | 44 | 205 | 4.0 | 10.0 | 0.00 | 0.48 | 0.04 | 97 | 1011.3 |
| 20260506231816 | 44 | 241 | 4.0 | 10.0 | 0.00 | 0.48 | 0.04 | 97 | 1011.3 |
| 20260506231613 | 44 | 224 | 4.0 | 7.0 | 0.00 | 0.48 | 0.04 | 97 | 1011.3 |
| 20260506231405 | 44 | 237 | 3.0 | 7.0 | 0.00 | 0.48 | 0.04 | 97 | 1011.3 |
| 20260506231202 | 44 | 249 | 3.0 | 6.0 | 0.00 | 0.48 | 0.04 | 97 | 1011.3 |
| 20260506231001 | 44 | 242 | 2.0 | 5.0 | 0.00 | 0.48 | 0.04 | 97 | 1011.4 |
| 20260506230433 | 44 | 244 | 1.0 | 5.0 | 0.00 | 0.48 | 0.04 | 97 | 1011.3 |
| 20260506225907 | 44 | 245 | 0.0 | 5.0 | 0.00 | 0.48 | 0.04 | 97 | 1011.2 |
| 20260506225706 | 44 | 233 | 0.0 | 5.0 | 0.00 | 0.48 | 0.04 | 97 | 1011.3 |
| 20260506225458 | 44 | 230 | 0.0 | 4.0 | 0.00 | 0.48 | 0.04 | 97 | 1011.3 |
| 20260506225257 | 44 | 241 | 0.0 | 3.0 | 0.00 | 0.48 | 0.04 | 97 | 1011.2 |
| 20260506224049 | 44 | 202 | 0.0 | 3.0 | 0.00 | 0.48 | 0.04 | 96 | 1011.3 |
| 20260506223844 | 44 | 146 | 0.0 | 3.0 | 0.00 | 0.48 | 0.04 | 96 | 1011.2 |
| 20260506223640 | 44 | 205 | 0.0 | 3.0 | 0.00 | 0.48 | 0.04 | 96 | 1011.2 |
| 20260506222754 | 44 | 223 | 0.0 | 5.0 | 0.05 | 0.48 | 0.04 | 96 | 1011.2 |
| 20260506222219 | 44 | 212 | 0.0 | 5.0 | 0.14 | 0.48 | 0.04 | 96 | 1011.2 |
| 20260506221701 | 44 | 229 | 2.0 | 8.0 | 0.03 | 0.46 | 0.03 | 95 | 1011.2 |
| 20260506221500 | 44 | 212 | 1.0 | 8.0 | 0.03 | 0.46 | 0.03 | 95 | 1011.2 |
| 20260506221252 | 44 | 236 | 1.0 | 8.0 | 0.04 | 0.46 | 0.03 | 95 | 1011.1 |
| 20260506220717 | 44 | 243 | 2.0 | 8.0 | 0.10 | 0.43 | 0.03 | 95 | 1011.2 |
| 20260506220517 | 44 | 239 | 2.0 | 8.0 | 0.18 | 0.43 | 0.03 | 95 | 1011.3 |
| 20260506220307 | 44 | 224 | 3.0 | 8.0 | 0.55 | 0.43 | 0.03 | 96 | 1011.3 |
| 20260506220058 | 45 | 229 | 2.0 | 8.0 | 0.60 | 0.43 | 0.00 | 96 | 1011.4 |
| 20260506215852 | 45 | 240 | 2.0 | 6.0 | 0.00 | 0.42 | 0.42 | 96 | 1011.4 |
| 20260506215642 | 45 | 240 | 2.0 | 6.0 | 0.00 | 0.42 | 0.42 | 96 | 1011.4 |
| 20260506215125 | 45 | 238 | 2.0 | 6.0 | 0.00 | 0.42 | 0.42 | 96 | 1011.3 |